The Science Museum is one of the three major museums on Exhibition Road, South Kensington, London in The Royal Borough of Kensington & Chelsea . It is part of the National Museum of Science and Industry. The museum is a major London tourist attraction. On June 26, 1909 the Science Museum, as an ind...
Anno 1284 am dage Johannis et Pauli war der 26. junii Dorch einen piper mit allerlei farve bekledet gewesen CXXX kinder verledet binnen Hamelen gebo[re]n to calvarie bi den koppen verloren Read more
Orbital elements: 2010 HC Earth MOID = 0.0919 AU Epoch 2010 Apr. 14.0 TT = JDT 2455300.5 MPC M 338.41884 (2000.0) P Q n 0.31588445 Peri. 246.42021 -0.04993894 +0.99784982 a 2.1352589 Node 20.85086 -0.86735668 -0.02225804 e 0.5218612 Incl. 6.84924 -0.49517521 -0.06164666 P 3.12 H 21.1 G 0.15 From 3...
Title: Origin of large-volume pseudotachylite in terrestrial impact structures Authors: Ulrich Riller, Daniel Lieger, Roger L. Gibson, Richard A.F. Grieve and Dieter Stöffler Large-volume pseudotachylite bodies in impact structures are dike like and consist of angular and rounded wall-ro...
Debris from a BREEZE-M (tank) that was launched from the Baikonur Cosmodrome in Kazakhstan, on the 11th August 2009, for the AsiaSat 5 mission, is predicted to re-enter the Earths atmosphere on the 22nd June, 2010 @ 06:56 GMT ± 48 hours. TLE Data pre>BREEZE-M DEB 1 35698U 09042C 10169.27445072 .34...
Julie Payette, CQ (born October 20, 1963 in Montreal, Quebec) is a Canadian engineer and a Canadian Space Agency (CSA) astronaut. Payette has completed two spaceflights, STS-96 and STS-127, logging more than 25 days in space. She serves as Chief Astronaut for the CSA, and has served in other role...
'Fiery ball' has W.Cape town baffled A Somerset West resident is one of several people who witnessed an object falling from the sky on Friday morning. Caroline Brinkmann said she noticed what appeared to be a meteor while driving with her mother on the N2 near Grabouw. [url=http://www.eyewitnessn...
Northrop Grumman-Built TDRS-1 Satellite Reaches 25 Years of Operational Success The first of six Tracking and Data Relay Satellite (TDRS) system spacecraft built by Northrop Grumman Corporation completed 25 years of successful on-orbit operations on April 4, setting a new standard for long l...
June has two main meteor showers, the Arietids and the June Bootids. Unfortunatly, the Arietids are during the daylight hours. The Earth will pass through a stream of dusty debris. Thought no one is sure where the Arietidsdust comes from, although some suspect its debris from the sungrazing astero...
Karl Taylor, 26, teaches flame-working at Sonoran Glass Art Academy and uses a torch to teach others how to produce pendants, jewellery, marbles, perfume vessels and goblets from glass. He's proud of his more original work, such as the hollow "geos" sitting in the glass case. Hollow geo...
Testing the Best-Yet Theory of Nature The best theory for explaining the subatomic world got its start in 1928 when theorist Paul Dirac combined quantum mechanics with special relativity to explain the behaviour of the electron. The result was relativistic quantum mechanics, which became a majo...
Orbital elements: 2010 MZ1 Earth MOID = 0.0197 AU Epoch 2010 July 23.0 TT = JDT 2455400.5 MPC M 14.52116 (2000.0) P Q n 0.52710332 Peri. 179.47305 +0.05932807 +0.92392577 a 1.5177685 Node 93.88895 -0.91724621 +0.19984554 e 0.3173029 Incl. 22.26035 -0.39387760 -0.32622529 P 1.87 H 25.6 G 0.15 U 9 [u...
Title: NGC 4262: a Virgo galaxy with an extended ultraviolet ring Authors: Bettoni, D. (1), Buson, L. M. (1), Galletta, G. (2) ((1)INAF, Osservatorio Astronomico di Padova, (2) Dipartimento di Astronomia Universita' di Padova) The Galaxy Ultraviolet Explorer (GALEX) satellite has recently sh...
NASA astrophysicist turns out for Geneva star party The lights were out for the star party at American Science & Surplus, but it wasn't due to a lunar eclipse. About a dozen people with an appreciation for starlit skies came to view the planets and solar system objects last Friday night before rea...